Location: Christian Reformed Church
(43.0975°N, 93.8113°W)
Time: 03:04:05
(UTC+00:00)

SMAP - Visible Passes

Search period start: 17 March 2026 00:00
Search period end: 27 March 2026 00:00
Orbit: 681 x 684 km, 98.1° (Epoch: 16 March)

Date Brightness Start Highest point End Pass type
(mag) Time Alt. Az. Time Alt. Az. Time Alt. Az.
17 Mar 6.9 01:16:45 10° W 01:17:30 10° W 01:18:15 10° WNW visible
17 Mar 6.2 11:31:27 10° NE 11:34:38 18° E 11:37:50 10° SE visible
19 Mar 6.2 00:49:40 10° SW 00:52:56 19° W 00:56:12 10° NW visible
20 Mar 5.9 11:43:13 10° NE 11:46:59 24° E 11:50:43 10° SSE visible
22 Mar 6.4 01:02:50 10° WSW 01:05:17 14° W 01:07:44 10° WNW visible
22 Mar 6.4 11:20:06 10° ENE 11:22:27 14° E 11:24:47 10° ESE visible
25 Mar 6.9 01:16:57 10° W 01:17:39 10° W 01:18:20 10° W visible
25 Mar 6.1 11:31:35 10° NE 11:34:48 18° E 11:37:59 10° SE visible
